| time (UTC) | temp F | wind direction | speed MPH | gust MPH | rain 1hr in | rain 24hr in | rain mn in | humidity % | barometer mb |
| 20260508202904 | 93 | 257 | 0.0 | 0.0 | 0.00 | 0.00 | 0.00 | 20 | 1008.4 |
| 20260508202406 | 92 | 257 | 0.0 | 1.0 | 0.00 | 0.00 | 0.00 | 20 | 1008.6 |
| 20260508201905 | 92 | 257 | 0.0 | 0.0 | 0.00 | 0.00 | 0.00 | 20 | 1008.6 |
| 20260508201405 | 92 | 257 | 0.0 | 2.0 | 0.00 | 0.00 | 0.00 | 20 | 1008.7 |
| 20260508200905 | 92 | 257 | 0.0 | 1.0 | 0.00 | 0.00 | 0.00 | 20 | 1008.8 |
| 20260508200404 | 92 | 257 | 0.0 | 1.0 | 0.00 | 0.00 | 0.00 | 20 | 1008.8 |
| 20260508195905 | 91 | 258 | 0.0 | 0.0 | 0.00 | 0.00 | 0.00 | 20 | 1008.8 |
| 20260508194905 | 91 | 256 | 0.0 | 2.0 | 0.00 | 0.00 | 0.00 | 20 | 1009.0 |
| 20260508193904 | 90 | 256 | 0.0 | 0.0 | 0.00 | 0.00 | 0.00 | 20 | 1009.1 |
| 20260508192905 | 90 | 256 | 0.0 | 0.0 | 0.00 | 0.00 | 0.00 | 21 | 1009.3 |
| 20260508192405 | 90 | 256 | 0.0 | 0.0 | 0.00 | 0.00 | 0.00 | 20 | 1009.4 |
| 20260508191905 | 91 | 256 | 0.0 | 1.0 | 0.00 | 0.00 | 0.00 | 21 | 1009.4 |
| 20260508190904 | 90 | 256 | 0.0 | 0.0 | 0.00 | 0.00 | 0.00 | 21 | 1009.6 |
| 20260508185905 | 89 | 256 | 0.0 | 1.0 | 0.00 | 0.00 | 0.00 | 22 | 1009.6 |
| 20260508185404 | 89 | 256 | 0.0 | 0.0 | 0.00 | 0.00 | 0.00 | 22 | 1009.7 |
| 20260508184904 | 89 | 256 | 0.0 | 0.0 | 0.00 | 0.00 | 0.00 | 21 | 1009.7 |
| 20260508184404 | 89 | 217 | 0.0 | 1.0 | 0.00 | 0.00 | 0.00 | 21 | 1009.8 |
| 20260508183904 | 89 | 205 | 0.0 | 0.0 | 0.00 | 0.00 | 0.00 | 21 | 1009.9 |
| 20260508183405 | 89 | 204 | 0.0 | 0.0 | 0.00 | 0.00 | 0.00 | 21 | 1010.0 |
| 20260508182904 | 89 | 205 | 0.0 | 0.0 | 0.00 | 0.00 | 0.00 | 22 | 1010.1 |
| 20260508181404 | 89 | 205 | 0.0 | 0.0 | 0.00 | 0.00 | 0.00 | 22 | 1010.2 |
| 20260508180904 | 88 | 205 | 0.0 | 0.0 | 0.00 | 0.00 | 0.00 | 22 | 1010.3 |
| 20260508175405 | 87 | 205 | 0.0 | 0.0 | 0.00 | 0.00 | 0.00 | 22 | 1010.3 |
| 20260508174404 | 86 | 205 | 0.0 | 3.0 | 0.00 | 0.00 | 0.00 | 23 | 1010.4 |
| 20260508173905 | 86 | 205 | 0.0 | 0.0 | 0.00 | 0.00 | 0.00 | 22 | 1010.5 |
| 20260508173404 | 86 | 205 | 0.0 | 3.0 | 0.00 | 0.00 | 0.00 | 23 | 1010.5 |
| 20260508172906 | 85 | 205 | 0.0 | 3.0 | 0.00 | 0.00 | 0.00 | 23 | 1010.6 |
| 20260508172404 | 85 | 205 | 0.0 | 2.0 | 0.00 | 0.00 | 0.00 | 23 | 1010.6 |
| 20260508171904 | 85 | 205 | 0.0 | 0.0 | 0.00 | 0.00 | 0.00 | 23 | 1010.7 |
| 20260508171404 | 86 | 205 | 0.0 | 3.0 | 0.00 | 0.00 | 0.00 | 23 | 1010.9 |
| 20260508170904 | 85 | 205 | 0.0 | 0.0 | 0.00 | 0.00 | 0.00 | 24 | 1010.8 |
| 20260508165904 | 85 | 205 | 0.0 | 3.0 | 0.00 | 0.00 | 0.00 | 24 | 1010.9 |
| 20260508165404 | 85 | 205 | 0.0 | 2.0 | 0.00 | 0.00 | 0.00 | 24 | 1010.9 |
| 20260508164904 | 84 | 205 | 1.0 | 7.0 | 0.00 | 0.00 | 0.00 | 25 | 1010.9 |
| 20260508164405 | 84 | 205 | 0.0 | 2.0 | 0.00 | 0.00 | 0.00 | 25 | 1010.9 |
| 20260508163904 | 83 | 205 | 0.0 | 2.0 | 0.00 | 0.00 | 0.00 | 25 | 1011.0 |
| 20260508162904 | 83 | 205 | 0.0 | 2.0 | 0.00 | 0.00 | 0.00 | 26 | 1011.1 |
| 20260508162405 | 83 | 205 | 0.0 | 2.0 | 0.00 | 0.00 | 0.00 | 26 | 1011.1 |
| 20260508161905 | 83 | 205 | 0.0 | 1.0 | 0.00 | 0.00 | 0.00 | 26 | 1011.1 |
| 20260508161404 | 82 | 205 | 0.0 | 2.0 | 0.00 | 0.00 | 0.00 | 26 | 1011.0 |
| 20260508160904 | 81 | 205 | 0.0 | 0.0 | 0.00 | 0.00 | 0.00 | 27 | 1011.2 |
| 20260508160404 | 81 | 205 | 0.0 | 0.0 | 0.00 | 0.00 | 0.00 | 27 | 1011.2 |
| 20260508155905 | 81 | 205 | 1.0 | 3.0 | 0.00 | 0.00 | 0.00 | 27 | 1010.9 |
| 20260508154905 | 80 | 205 | 0.0 | 1.0 | 0.00 | 0.00 | 0.00 | 27 | 1011.0 |
| 20260508154404 | 80 | 205 | 0.0 | 3.0 | 0.00 | 0.00 | 0.00 | 27 | 1011.0 |
| 20260508153904 | 80 | 205 | 0.0 | 3.0 | 0.00 | 0.00 | 0.00 | 28 | 1011.0 |
| 20260508153404 | 80 | 205 | 0.0 | 3.0 | 0.00 | 0.00 | 0.00 | 28 | 1010.9 |
| 20260508152904 | 80 | 205 | 0.0 | 3.0 | 0.00 | 0.00 | 0.00 | 28 | 1010.9 |
| 20260508152404 | 79 | 205 | 0.0 | 3.0 | 0.00 | 0.00 | 0.00 | 28 | 1011.0 |
| 20260508151905 | 79 | 205 | 1.0 | 5.0 | 0.00 | 0.00 | 0.00 | 28 | 1011.0 |
| 20260508151404 | 79 | 205 | 1.0 | 6.0 | 0.00 | 0.00 | 0.00 | 28 | 1011.1 |
| 20260508150904 | 78 | 205 | 1.0 | 12.0 | 0.00 | 0.00 | 0.00 | 28 | 1011.0 |
| 20260508145904 | 78 | 256 | 0.0 | 2.0 | 0.00 | 0.00 | 0.00 | 29 | 1010.9 |
| 20260508145404 | 78 | 257 | 0.0 | 6.0 | 0.00 | 0.00 | 0.00 | 29 | 1010.9 |
| 20260508144904 | 77 | 257 | 0.0 | 0.0 | 0.00 | 0.00 | 0.00 | 30 | 1010.9 |
| 20260508144405 | 77 | 257 | 0.0 | 0.0 | 0.00 | 0.00 | 0.00 | 30 | 1010.9 |
| 20260508143404 | 76 | 257 | 0.0 | 0.0 | 0.00 | 0.00 | 0.00 | 31 | 1011.0 |
| 20260508142904 | 75 | 257 | 0.0 | 0.0 | 0.00 | 0.00 | 0.00 | 32 | 1011.1 |
| 20260508141404 | 72 | 257 | 0.0 | 1.0 | 0.00 | 0.00 | 0.00 | 34 | 1011.2 |
| 20260508140904 | 71 | 252 | 0.0 | 0.0 | 0.00 | 0.00 | 0.00 | 34 | 1011.2 |
| 20260508140404 | 71 | 252 | 0.0 | 0.0 | 0.00 | 0.00 | 0.00 | 34 | 1011.1 |
| 20260508135904 | 70 | 252 | 0.0 | 0.0 | 0.00 | 0.00 | 0.00 | 34 | 1011.1 |
| 20260508134905 | 69 | 252 | 0.0 | 0.0 | 0.00 | 0.00 | 0.00 | 35 | 1011.0 |
| 20260508134404 | 69 | 251 | 0.0 | 0.0 | 0.00 | 0.00 | 0.00 | 35 | 1011.0 |
| 20260508133904 | 68 | 252 | 0.0 | 0.0 | 0.00 | 0.00 | 0.00 | 35 | 1011.1 |
| 20260508133411 | 68 | 251 | 0.0 | 0.0 | 0.00 | 0.00 | 0.00 | 35 | 1011.0 |
| 20260508132405 | 67 | 251 | 0.0 | 0.0 | 0.00 | 0.00 | 0.00 | 35 | 1011.0 |
| 20260508131905 | 67 | 251 | 0.0 | 0.0 | 0.00 | 0.00 | 0.00 | 35 | 1010.9 |
| 20260508131405 | 66 | 251 | 0.0 | 0.0 | 0.00 | 0.00 | 0.00 | 35 | 1010.8 |
| 20260508130904 | 66 | 251 | 0.0 | 0.0 | 0.00 | 0.00 | 0.00 | 36 | 1010.8 |
| 20260508130405 | 66 | 251 | 0.0 | 0.0 | 0.00 | 0.00 | 0.00 | 36 | 1010.6 |
| 20260508125906 | 66 | 251 | 0.0 | 0.0 | 0.00 | 0.00 | 0.00 | 36 | 1010.5 |
| 20260508125404 | 66 | 251 | 0.0 | 0.0 | 0.00 | 0.00 | 0.00 | 36 | 1010.4 |
| 20260508124907 | 66 | 250 | 0.0 | 0.0 | 0.00 | 0.00 | 0.00 | 36 | 1010.3 |
| 20260508124405 | 66 | 250 | 0.0 | 0.0 | 0.00 | 0.00 | 0.00 | 36 | 1010.3 |
| 20260508123905 | 66 | 250 | 0.0 | 0.0 | 0.00 | 0.00 | 0.00 | 37 | 1010.1 |
| 20260508123405 | 66 | 250 | 0.0 | 0.0 | 0.00 | 0.00 | 0.00 | 37 | 1010.1 |
| 20260508122905 | 67 | 250 | 0.0 | 0.0 | 0.00 | 0.00 | 0.00 | 36 | 1009.9 |
| 20260508122405 | 67 | 250 | 0.0 | 0.0 | 0.00 | 0.00 | 0.00 | 36 | 1009.9 |
| 20260508121905 | 67 | 249 | 0.0 | 0.0 | 0.00 | 0.00 | 0.00 | 35 | 1009.8 |
| 20260508121405 | 68 | 249 | 0.0 | 0.0 | 0.00 | 0.00 | 0.00 | 35 | 1009.8 |
| 20260508120905 | 68 | 250 | 0.0 | 0.0 | 0.00 | 0.00 | 0.00 | 35 | 1009.7 |
| 20260508120405 | 69 | 250 | 0.0 | 0.0 | 0.00 | 0.00 | 0.00 | 35 | 1009.6 |
| 20260508115905 | 69 | 250 | 0.0 | 0.0 | 0.00 | 0.00 | 0.00 | 34 | 1009.5 |
| 20260508115405 | 69 | 250 | 0.0 | 0.0 | 0.00 | 0.00 | 0.00 | 34 | 1009.4 |
| 20260508114904 | 70 | 250 | 0.0 | 0.0 | 0.00 | 0.00 | 0.00 | 34 | 1009.4 |
| 20260508114405 | 70 | 250 | 0.0 | 0.0 | 0.00 | 0.00 | 0.00 | 34 | 1009.4 |
| 20260508113906 | 70 | 250 | 0.0 | 0.0 | 0.00 | 0.00 | 0.00 | 34 | 1009.3 |
| 20260508113404 | 70 | 250 | 0.0 | 0.0 | 0.00 | 0.00 | 0.00 | 34 | 1009.3 |
| 20260508112906 | 70 | 250 | 0.0 | 0.0 | 0.00 | 0.00 | 0.00 | 33 | 1009.3 |
| 20260508112405 | 70 | 250 | 0.0 | 0.0 | 0.00 | 0.00 | 0.00 | 33 | 1009.3 |
| 20260508111905 | 70 | 250 | 0.0 | 0.0 | 0.00 | 0.00 | 0.00 | 33 | 1009.3 |
| 20260508111405 | 70 | 250 | 0.0 | 0.0 | 0.00 | 0.00 | 0.00 | 33 | 1009.2 |
| 20260508105904 | 70 | 250 | 0.0 | 1.0 | 0.00 | 0.00 | 0.00 | 32 | 1009.2 |
| 20260508105404 | 70 | 250 | 0.0 | 0.0 | 0.00 | 0.00 | 0.00 | 32 | 1009.1 |
| 20260508104904 | 70 | 250 | 0.0 | 0.0 | 0.00 | 0.00 | 0.00 | 31 | 1009.1 |
| 20260508104404 | 70 | 250 | 0.0 | 0.0 | 0.00 | 0.00 | 0.00 | 31 | 1009.1 |
| 20260508103405 | 70 | 250 | 0.0 | 0.0 | 0.00 | 0.00 | 0.00 | 30 | 1009.1 |
| 20260508102904 | 70 | 250 | 0.0 | 0.0 | 0.00 | 0.00 | 0.00 | 29 | 1009.1 |
| 20260508102405 | 70 | 250 | 0.0 | 0.0 | 0.00 | 0.00 | 0.00 | 29 | 1009.2 |
| 20260508101904 | 70 | 250 | 0.0 | 0.0 | 0.00 | 0.00 | 0.00 | 29 | 1009.1 |
| 20260508101407 | 70 | 250 | 0.0 | 0.0 | 0.00 | 0.00 | 0.00 | 28 | 1009.2 |
| 20260508100404 | 69 | 250 | 0.0 | 0.0 | 0.00 | 0.00 | 0.00 | 28 | 1009.1 |
| 20260508095905 | 69 | 249 | 0.0 | 0.0 | 0.00 | 0.00 | 0.00 | 28 | 1009.2 |
| 20260508095404 | 69 | 250 | 0.0 | 0.0 | 0.00 | 0.00 | 0.00 | 28 | 1009.1 |
| 20260508094905 | 68 | 250 | 0.0 | 0.0 | 0.00 | 0.00 | 0.00 | 28 | 1009.1 |
| 20260508094404 | 68 | 250 | 0.0 | 0.0 | 0.00 | 0.00 | 0.00 | 28 | 1009.1 |
| 20260508093904 | 68 | 250 | 0.0 | 0.0 | 0.00 | 0.00 | 0.00 | 29 | 1009.1 |
| 20260508093405 | 68 | 250 | 0.0 | 0.0 | 0.00 | 0.00 | 0.00 | 28 | 1009.0 |
| 20260508092904 | 68 | 250 | 0.0 | 0.0 | 0.00 | 0.00 | 0.00 | 28 | 1009.0 |
| 20260508092404 | 68 | 250 | 0.0 | 0.0 | 0.00 | 0.00 | 0.00 | 28 | 1009.0 |
| 20260508091905 | 68 | 250 | 0.0 | 0.0 | 0.00 | 0.00 | 0.00 | 28 | 1009.0 |
| 20260508091406 | 68 | 250 | 0.0 | 0.0 | 0.00 | 0.00 | 0.00 | 27 | 1008.9 |
| 20260508090904 | 68 | 250 | 0.0 | 0.0 | 0.00 | 0.00 | 0.00 | 27 | 1009.0 |
| 20260508090404 | 69 | 250 | 0.0 | 0.0 | 0.00 | 0.00 | 0.00 | 27 | 1009.0 |
| 20260508085404 | 69 | 250 | 0.0 | 0.0 | 0.00 | 0.00 | 0.00 | 27 | 1009.0 |
| 20260508084905 | 69 | 250 | 0.0 | 0.0 | 0.00 | 0.00 | 0.00 | 26 | 1009.0 |
| 20260508084404 | 69 | 250 | 0.0 | 0.0 | 0.00 | 0.00 | 0.00 | 26 | 1009.0 |
| 20260508083404 | 69 | 250 | 0.0 | 0.0 | 0.00 | 0.00 | 0.00 | 26 | 1009.0 |
| 20260508082904 | 69 | 250 | 0.0 | 0.0 | 0.00 | 0.00 | 0.00 | 26 | 1009.0 |
| 20260508081905 | 69 | 250 | 0.0 | 0.0 | 0.00 | 0.00 | 0.00 | 26 | 1009.0 |
| 20260508080904 | 70 | 250 | 0.0 | 0.0 | 0.00 | 0.00 | 0.00 | 25 | 1009.0 |
| 20260508075905 | 71 | 250 | 0.0 | 0.0 | 0.00 | 0.00 | 0.00 | 25 | 1009.0 |
| 20260508075404 | 71 | 249 | 0.0 | 0.0 | 0.00 | 0.00 | 0.00 | 25 | 1009.0 |
| 20260508074904 | 71 | 250 | 0.0 | 0.0 | 0.00 | 0.00 | 0.00 | 24 | 1009.0 |
| 20260508074406 | 71 | 250 | 0.0 | 0.0 | 0.00 | 0.00 | 0.00 | 24 | 1009.0 |
| 20260508073904 | 72 | 250 | 0.0 | 0.0 | 0.00 | 0.00 | 0.00 | 24 | 1009.0 |
| 20260508073404 | 72 | 250 | 0.0 | 0.0 | 0.00 | 0.00 | 0.00 | 24 | 1009.0 |
| 20260508072904 | 72 | 250 | 0.0 | 0.0 | 0.00 | 0.00 | 0.00 | 24 | 1009.0 |
| 20260508072404 | 72 | 250 | 0.0 | 0.0 | 0.00 | 0.00 | 0.00 | 24 | 1009.0 |
| 20260508071904 | 73 | 250 | 0.0 | 0.0 | 0.00 | 0.00 | 0.00 | 24 | 1008.9 |
| 20260508071404 | 73 | 250 | 0.0 | 0.0 | 0.00 | 0.00 | 0.00 | 24 | 1008.9 |
| 20260508070904 | 73 | 250 | 0.0 | 0.0 | 0.00 | 0.00 | 0.00 | 24 | 1008.8 |
| 20260508070404 | 73 | 250 | 0.0 | 0.0 | 0.00 | 0.00 | 0.00 | 24 | 1008.8 |
| 20260508065904 | 74 | 250 | 0.0 | 0.0 | 0.00 | 0.00 | 0.00 | 24 | 1008.9 |
| 20260508065404 | 74 | 250 | 0.0 | 0.0 | 0.00 | 0.00 | 0.00 | 24 | 1008.9 |
| 20260508064904 | 75 | 250 | 0.0 | 0.0 | 0.00 | 0.00 | 0.00 | 25 | 1008.7 |
| 20260508063904 | 75 | 250 | 0.0 | 0.0 | 0.00 | 0.00 | 0.00 | 24 | 1008.7 |
| 20260508063405 | 75 | 250 | 0.0 | 0.0 | 0.00 | 0.00 | 0.00 | 23 | 1008.7 |
| 20260508062904 | 75 | 250 | 0.0 | 0.0 | 0.00 | 0.00 | 0.00 | 23 | 1008.7 |
| 20260508061904 | 76 | 250 | 0.0 | 0.0 | 0.00 | 0.00 | 0.00 | 23 | 1008.7 |
| 20260508061404 | 76 | 250 | 0.0 | 0.0 | 0.00 | 0.00 | 0.00 | 22 | 1008.7 |
| 20260508060904 | 76 | 250 | 0.0 | 0.0 | 0.00 | 0.00 | 0.00 | 22 | 1008.8 |
| 20260508060404 | 76 | 250 | 0.0 | 0.0 | 0.00 | 0.00 | 0.00 | 23 | 1008.6 |
| 20260508055904 | 77 | 250 | 0.0 | 0.0 | 0.00 | 0.00 | 0.00 | 23 | 1008.8 |
| 20260508055404 | 77 | 250 | 0.0 | 0.0 | 0.00 | 0.00 | 0.00 | 22 | 1008.7 |
| 20260508054904 | 77 | 249 | 0.0 | 0.0 | 0.00 | 0.00 | 0.00 | 22 | 1008.7 |
| 20260508054404 | 77 | 250 | 0.0 | 0.0 | 0.00 | 0.00 | 0.00 | 22 | 1008.8 |
| 20260508053904 | 78 | 250 | 0.0 | 0.0 | 0.00 | 0.00 | 0.00 | 22 | 1008.6 |
| 20260508053404 | 78 | 250 | 0.0 | 0.0 | 0.00 | 0.00 | 0.00 | 22 | 1008.7 |
| 20260508052904 | 78 | 250 | 0.0 | 0.0 | 0.00 | 0.00 | 0.00 | 21 | 1008.7 |
| 20260508052404 | 78 | 250 | 0.0 | 0.0 | 0.00 | 0.00 | 0.00 | 21 | 1008.6 |
| 20260508051904 | 78 | 250 | 0.0 | 0.0 | 0.00 | 0.00 | 0.00 | 21 | 1008.6 |
| 20260508050904 | 78 | 250 | 0.0 | 0.0 | 0.00 | 0.00 | 0.00 | 22 | 1008.6 |
| 20260508050404 | 78 | 250 | 0.0 | 0.0 | 0.00 | 0.00 | 0.00 | 22 | 1008.6 |
| 20260508045904 | 78 | 250 | 0.0 | 0.0 | 0.00 | 0.00 | 0.00 | 21 | 1008.7 |
| 20260508045404 | 78 | 250 | 0.0 | 0.0 | 0.00 | 0.00 | 0.00 | 21 | 1008.6 |
| 20260508044904 | 79 | 250 | 0.0 | 0.0 | 0.00 | 0.00 | 0.00 | 21 | 1008.5 |
| 20260508044404 | 79 | 250 | 0.0 | 0.0 | 0.00 | 0.00 | 0.00 | 21 | 1008.4 |
| 20260508043904 | 79 | 250 | 0.0 | 0.0 | 0.00 | 0.00 | 0.00 | 20 | 1008.4 |
| 20260508043404 | 80 | 250 | 0.0 | 0.0 | 0.00 | 0.00 | 0.00 | 20 | 1008.4 |
| 20260508042404 | 81 | 250 | 0.0 | 0.0 | 0.00 | 0.00 | 0.00 | 19 | 1008.2 |
| 20260508041904 | 82 | 250 | 0.0 | 0.0 | 0.00 | 0.00 | 0.00 | 18 | 1008.2 |
| 20260508041404 | 82 | 250 | 0.0 | 0.0 | 0.00 | 0.00 | 0.00 | 18 | 1008.0 |
| 20260508040904 | 83 | 249 | 0.0 | 0.0 | 0.00 | 0.00 | 0.00 | 18 | 1008.0 |
| 20260508040405 | 84 | 250 | 0.0 | 0.0 | 0.00 | 0.00 | 0.00 | 18 | 1008.0 |
| 20260508035904 | 84 | 250 | 0.0 | 0.0 | 0.00 | 0.00 | 0.00 | 18 | 1007.9 |
| 20260508035404 | 84 | 250 | 0.0 | 0.0 | 0.00 | 0.00 | 0.00 | 17 | 1007.9 |
| 20260508034904 | 85 | 250 | 0.0 | 0.0 | 0.00 | 0.00 | 0.00 | 17 | 1007.8 |
| 20260508034404 | 85 | 250 | 0.0 | 0.0 | 0.00 | 0.00 | 0.00 | 17 | 1007.7 |
| 20260508033904 | 85 | 250 | 0.0 | 0.0 | 0.00 | 0.00 | 0.00 | 17 | 1007.6 |
| 20260508033404 | 85 | 250 | 0.0 | 0.0 | 0.00 | 0.00 | 0.00 | 17 | 1007.6 |
| 20260508032904 | 86 | 250 | 0.0 | 0.0 | 0.00 | 0.00 | 0.00 | 17 | 1007.4 |
| 20260508032404 | 86 | 250 | 0.0 | 0.0 | 0.00 | 0.00 | 0.00 | 17 | 1007.3 |
| 20260508031404 | 86 | 250 | 0.0 | 0.0 | 0.00 | 0.00 | 0.00 | 16 | 1007.2 |
| 20260508030903 | 86 | 250 | 0.0 | 0.0 | 0.00 | 0.00 | 0.00 | 16 | 1007.1 |
| 20260508030404 | 87 | 249 | 0.0 | 0.0 | 0.00 | 0.00 | 0.00 | 16 | 1007.0 |
| 20260508025905 | 87 | 249 | 0.0 | 0.0 | 0.00 | 0.00 | 0.00 | 16 | 1007.1 |
| 20260508025404 | 87 | 250 | 0.0 | 0.0 | 0.00 | 0.00 | 0.00 | 17 | 1007.1 |
| 20260508024904 | 87 | 250 | 0.0 | 0.0 | 0.00 | 0.00 | 0.00 | 17 | 1007.0 |
| 20260508023905 | 87 | 250 | 0.0 | 0.0 | 0.00 | 0.00 | 0.00 | 16 | 1006.9 |
| 20260508022904 | 88 | 250 | 0.0 | 0.0 | 0.00 | 0.00 | 0.00 | 16 | 1006.6 |
| 20260508022403 | 88 | 250 | 0.0 | 0.0 | 0.00 | 0.00 | 0.00 | 16 | 1006.6 |
| 20260508021904 | 88 | 250 | 0.0 | 0.0 | 0.00 | 0.00 | 0.00 | 16 | 1006.6 |
| 20260508021404 | 88 | 250 | 0.0 | 0.0 | 0.00 | 0.00 | 0.00 | 16 | 1006.6 |
| 20260508020404 | 89 | 250 | 0.0 | 0.0 | 0.00 | 0.00 | 0.00 | 16 | 1006.4 |
| 20260508015404 | 89 | 250 | 0.0 | 1.0 | 0.00 | 0.00 | 0.00 | 16 | 1006.8 |
| 20260508014904 | 89 | 250 | 0.0 | 2.0 | 0.00 | 0.00 | 0.00 | 16 | 1006.7 |
| 20260508014403 | 90 | 250 | 0.0 | 1.0 | 0.00 | 0.00 | 0.00 | 16 | 1006.7 |
| 20260508013904 | 90 | 250 | 0.0 | 0.0 | 0.00 | 0.00 | 0.00 | 16 | 1006.7 |
| 20260508013404 | 90 | 250 | 0.0 | 1.0 | 0.00 | 0.00 | 0.00 | 15 | 1006.6 |
| 20260508012903 | 90 | 250 | 0.0 | 1.0 | 0.00 | 0.00 | 0.00 | 16 | 1006.6 |
| 20260508012403 | 90 | 251 | 0.0 | 0.0 | 0.00 | 0.00 | 0.00 | 16 | 1006.6 |
| 20260508011904 | 91 | 251 | 0.0 | 0.0 | 0.00 | 0.00 | 0.00 | 15 | 1006.5 |
| 20260508011440 | 91 | 251 | 0.0 | 0.0 | 0.00 | 0.00 | 0.00 | 15 | 1006.5 |
| 20260508010904 | 91 | 251 | 0.0 | 1.0 | 0.00 | 0.00 | 0.00 | 15 | 1006.4 |
| 20260508010403 | 91 | 252 | 0.0 | 0.0 | 0.00 | 0.00 | 0.00 | 15 | 1006.4 |
| 20260508005903 | 91 | 253 | 0.0 | 1.0 | 0.00 | 0.00 | 0.00 | 15 | 1006.7 |
| 20260508004904 | 91 | 254 | 0.0 | 0.0 | 0.00 | 0.00 | 0.00 | 15 | 1006.7 |
| 20260508003903 | 92 | 259 | 0.0 | 1.0 | 0.00 | 0.00 | 0.00 | 15 | 1006.6 |
| 20260508002904 | 92 | 246 | 0.0 | 1.0 | 0.00 | 0.00 | 0.00 | 14 | 1006.6 |
| 20260508002403 | 92 | 217 | 1.0 | 9.0 | 0.00 | 0.00 | 0.00 | 15 | 1006.6 |
| 20260508001904 | 92 | 214 | 0.0 | 3.0 | 0.00 | 0.00 | 0.00 | 14 | 1006.6 |
| 20260508000904 | 92 | 250 | 0.0 | 1.0 | 0.00 | 0.00 | 0.00 | 15 | 1006.6 |
| 20260507235903 | 93 | 266 | 0.0 | 3.0 | 0.00 | 0.00 | 0.00 | 14 | 1006.7 |
| 20260507235404 | 93 | 255 | 0.0 | 0.0 | 0.00 | 0.00 | 0.00 | 14 | 1006.7 |
| 20260507234431 | 93 | 250 | 0.0 | 0.0 | 0.00 | 0.00 | 0.00 | 14 | 1006.7 |
| 20260507233908 | 93 | 256 | 0.0 | 0.0 | 0.00 | 0.00 | 0.00 | 14 | 1006.8 |
| 20260507233424 | 93 | 257 | 0.0 | 2.0 | 0.00 | 0.00 | 0.00 | 14 | 1006.8 |
| 20260507232932 | 93 | 274 | 0.0 | 3.0 | 0.00 | 0.00 | 0.00 | 14 | 1006.8 |
| 20260507232434 | 93 | 239 | 0.0 | 0.0 | 0.00 | 0.00 | 0.00 | 14 | 1006.8 |
| 20260507231904 | 93 | 230 | 0.0 | 1.0 | 0.00 | 0.00 | 0.00 | 14 | 1006.8 |
| 20260507231404 | 93 | 258 | 0.0 | 0.0 | 0.00 | 0.00 | 0.00 | 14 | 1006.8 |
| 20260507230904 | 93 | 241 | 0.0 | 1.0 | 0.00 | 0.00 | 0.00 | 15 | 1006.9 |
| 20260507230404 | 92 | 238 | 0.0 | 1.0 | 0.00 | 0.00 | 0.00 | 14 | 1006.8 |
| 20260507225404 | 93 | 247 | 0.0 | 3.0 | 0.00 | 0.00 | 0.00 | 14 | 1006.9 |
| 20260507224903 | 93 | 246 | 0.0 | 5.0 | 0.00 | 0.00 | 0.00 | 14 | 1006.9 |
| 20260507224404 | 94 | 249 | 0.0 | 3.0 | 0.00 | 0.00 | 0.00 | 14 | 1006.8 |
| 20260507223904 | 94 | 252 | 0.0 | 0.0 | 0.00 | 0.00 | 0.00 | 14 | 1006.9 |
| 20260507223404 | 93 | 252 | 0.0 | 0.0 | 0.00 | 0.00 | 0.00 | 14 | 1007.0 |
| 20260507222403 | 94 | 228 | 0.0 | 1.0 | 0.00 | 0.00 | 0.00 | 14 | 1007.1 |
| 20260507221404 | 92 | 224 | 0.0 | 7.0 | 0.00 | 0.00 | 0.00 | 14 | 1007.2 |
| 20260507220903 | 93 | 231 | 0.0 | 7.0 | 0.00 | 0.00 | 0.00 | 14 | 1007.2 |
| 20260507220404 | 93 | 260 | 0.0 | 3.0 | 0.00 | 0.00 | 0.00 | 14 | 1007.3 |
| 20260507215903 | 92 | 265 | 0.0 | 1.0 | 0.00 | 0.00 | 0.00 | 14 | 1007.4 |
| 20260507215404 | 93 | 268 | 1.0 | 3.0 | 0.00 | 0.00 | 0.00 | 13 | 1007.4 |
| 20260507214904 | 93 | 244 | 0.0 | 0.0 | 0.00 | 0.00 | 0.00 | 14 | 1007.4 |
| 20260507214404 | 93 | 244 | 0.0 | 0.0 | 0.00 | 0.00 | 0.00 | 14 | 1007.6 |
| 20260507213405 | 92 | 244 | 0.0 | 0.0 | 0.00 | 0.00 | 0.00 | 14 | 1007.8 |
| 20260507212905 | 91 | 244 | 0.0 | 0.0 | 0.00 | 0.00 | 0.00 | 14 | 1007.9 |
| 20260507212403 | 92 | 244 | 0.0 | 0.0 | 0.00 | 0.00 | 0.00 | 14 | 1008.0 |
| 20260507211904 | 92 | 243 | 0.0 | 0.0 | 0.00 | 0.00 | 0.00 | 14 | 1008.1 |
| 20260507211405 | 92 | 244 | 0.0 | 2.0 | 0.00 | 0.00 | 0.00 | 14 | 1008.1 |
| 20260507210906 | 92 | 244 | 0.0 | 0.0 | 0.00 | 0.00 | 0.00 | 14 | 1008.2 |
| 20260507210405 | 92 | 244 | 0.0 | 0.0 | 0.00 | 0.00 | 0.00 | 14 | 1008.3 |
| 20260507205906 | 92 | 243 | 0.0 | 3.0 | 0.00 | 0.00 | 0.00 | 14 | 1008.4 |
| 20260507205406 | 93 | 244 | 0.0 | 2.0 | 0.00 | 0.00 | 0.00 | 14 | 1008.4 |
| 20260507204906 | 92 | 244 | 0.0 | 0.0 | 0.00 | 0.00 | 0.00 | 14 | 1008.5 |
| 20260507203405 | 92 | 244 | 0.0 | 0.0 | 0.00 | 0.00 | 0.00 | 15 | 1008.8 |